Location: ????????
(38.2865°N, 22.7930°E)
Time: 13:21:42
(UTC+00:00)

Daily predictions for brighter satellites

Satellite Brightness Start Highest point End
(mag) Time Altitude Azimuth Time Altitude Azimuth Time Altitude Azimuth
Cosmos 2285 Rocket 4.4 18:18:04 10° SSW 18:24:23 74° WNW 18:30:46 10° NNE
Atlas Centaur 2 3.4 18:17:22 10° WSW 18:24:47 49° S 18:32:44 10° ESE
USA 186 2.3 18:22:35 10° S 18:25:52 63° W 18:29:11 10° NNW
CZ-4 R/B 2.5 18:22:21 10° S 18:26:07 43° W 18:29:57 10° NNW
Resurs 01 Rocket 1.7 18:26:06 10° SSE 18:30:30 87° WSW 18:34:55 10° NNW
MOS 1-B 4.4 18:27:58 10° SSE 18:33:44 90° W 18:39:33 10° NNW
Cosmos 1697 Rocket 4.1 18:31:58 10° NW 18:37:02 36° WSW 18:42:05 10° S
Cosmos 1763 Rocket 3.6 18:34:31 10° NNW 18:39:44 64° ENE 18:44:49 10° SSE
CSL-04 Rocket 3.8 18:35:44 10° S 18:41:00 79° WSW 18:46:22 10° NNW
Tiangong -2.1 18:38:04 10° WNW 18:41:14 84° NNE 18:44:14 11° ESE
Terra 3.4 18:43:13 10° ESE 18:46:37 20° ENE 18:50:01 10° NNE
Cosmos 1707 2.6 18:43:24 10° S 18:46:57 60° E 18:50:30 10° NNE
IRIDIUM 104 4.3 18:43:37 10° N 18:48:51 78° E 18:54:03 10° S
ATLAS 2AS CENTAUR R/B 4.4 18:45:22 10° N 18:50:14 20° NE 18:55:00 10° E
PSLV R/B 3.9 18:48:45 10° S 18:52:15 64° WSW 18:55:45 10° NNW
Cosmos 1980 Rocket 2.8 18:49:51 10° NNW 18:55:24 57° WSW 19:00:54 10° S
ASTRO E2 4.0 18:53:30 10° SSW 18:55:49 17° SSE 18:56:38 16° SSE
COSMOS 2406 4.3 18:50:37 10° SW 18:56:11 50° WNW 19:01:46 10° NNE
Cosmos 2322 Rocket 3.8 18:52:44 10° N 18:57:05 22° NE 19:01:11 11° ESE
IRIDIUM 114 4.4 18:52:45 10° N 18:58:00 86° W 19:03:12 10° S
ARGOS Delta rocket 4.0 18:58:09 14° SSE 19:01:50 50° ENE 19:06:06 10° N
CZ-4C R/B 3.3 18:58:04 10° NNE 19:02:13 75° ESE 19:06:18 10° S
Cosmos 1674 4.0 19:03:21 10° SSW 19:06:34 37° W 19:09:49 10° N
Cosmos 1553 Rocket 4.0 19:02:27 10° N 19:08:41 85° E 19:14:59 10° S
Timation 1 Rocket 4.3 19:04:00 10° S 19:09:50 62° ESE 19:15:42 10° NNE
Cosmos 2278 4.0 19:04:27 10° NNW 19:10:05 56° ENE 19:14:09 18° SE
Ariane Rocket 4.0 19:08:45 17° ESE 19:11:53 31° ENE 19:16:18 10° N
Cosmos 468 Rocket 3.9 19:06:47 10° NNW 19:12:01 82° ENE 19:16:02 17° SSE
S3M 4.4 19:06:24 10° N 19:12:30 47° ENE 19:16:58 18° SE
Meteor 1-13 Rocket 4.2 19:09:48 10° S 19:15:37 83° E 19:21:21 10° N
Okean-O 2.9 19:13:15 11° S 19:17:22 67° WSW 19:21:47 10° NNW
Cosmos 2266 Rocket 4.1 19:11:44 10° S 19:17:56 64° E 19:24:16 10° NNE
Cosmos 2219 Rocket 4.3 19:18:30 10° NNE 19:21:29 14° NE 19:24:29 10° E
Cosmos 1400 Rocket 2.7 19:19:40 17° S 19:22:32 63° E 19:26:22 10° NNE
Cosmos 1300 4.0 19:19:50 10° NNE 19:22:36 21° ENE 19:23:20 20° E
SL-27 R/B 3.1 19:23:03 25° E 19:23:03 25° E 19:25:01 10° NE
Cosmos 1655 Rocket 4.4 19:18:24 16° SSE 19:23:13 48° E 19:29:19 10° NNE
MOS 1 4.4 19:18:04 12° S 19:23:19 74° WSW 19:28:58 10° NNW
Cosmos 1850 Rocket 4.1 19:20:09 10° S 19:25:15 57° ESE 19:30:21 10° NNE
Cosmos 1356 Rocket 4.1 19:23:41 25° SE 19:25:19 35° E 19:29:09 10° NNE
USA 245 3.5 19:24:51 29° SE 19:26:17 50° ENE 19:30:17 10° N
Cosmos 2237 4.3 19:20:59 10° NNW 19:26:42 68° ENE 19:30:18 23° SE
Cosmos 1441 Rocket 3.0 19:23:35 10° N 19:27:13 81° W 19:29:19 23° S
Cosmos 540 Rocket 3.8 19:23:01 10° NNW 19:28:07 62° WSW 19:32:01 17° S
ATLAS CENTAUR R/B 0.7 19:25:25 10° SSW 19:28:52 78° ESE 19:32:24 10° NNE
Cosmos 1908 3.4 19:29:23 10° NNW 19:32:57 62° W 19:35:08 22° S
MOS 1 Rocket 3.9 19:31:12 24° SE 19:34:13 51° ENE 19:39:23 10° N
Cosmos 2228 Rocket 3.4 19:32:28 26° SSE 19:34:40 48° E 19:39:04 10° NNE
Okean O Rocket 3.9 19:33:22 10° SW 19:36:39 21° W 19:39:57 10° NW
Cosmos 1869 Rocket 3.6 19:34:11 10° N 19:38:38 85° W 19:41:14 25° S
Cosmos 968 Rocket 3.6 19:35:57 22° S 19:39:03 51° ESE 19:44:02 10° NNE
IRS-1C Rocket 4.2 19:35:23 20° S 19:39:07 77° WSW 19:44:24 10° NNW
Meteor 1-4 Rocket 4.3 19:41:08 14° ENE 19:41:08 14° ENE 19:42:00 10° NE
SPOT 3 Rocket 3.8 19:37:40 27° SE 19:40:14 52° ENE 19:45:14 10° N
SeaSat 1 2.5 19:39:21 28° SE 19:41:53 68° ENE 19:46:46 10° NNW
Cosmos 1741 Rocket 3.9 19:40:26 10° SSW 19:45:40 84° ESE 19:50:59 10° NNE
Cosmos 2360 Rocket 2.9 19:41:48 10° N 19:47:10 41° ENE 19:49:45 26° ESE
SPOT 5 3.5 19:45:40 17° SSW 19:48:37 43° W 19:52:48 10° NNW
Meteor 1-23 Rocket 4.3 19:49:03 14° SSW 19:54:01 78° W 19:59:46 10° N
BlueWalker 3 4.1 19:57:39 13° ENE 19:57:39 13° ENE 19:58:11 10° ENE
USA 234 3.9 19:50:11 10° NE 19:56:34 58° NW 20:02:55 10° WSW
Landsat 4 3.3 19:56:28 60° SE 19:56:59 75° ENE 20:00:25 10° N
SL-16 R/B 2.2 19:53:24 10° NNW 19:59:05 75° WSW 20:01:48 32° S
Meteor 1-15 Rocket 4.4 19:57:22 10° NNW 20:02:53 67° W 20:06:05 26° S
Cosmos 2333 Rocket 2.6 19:57:17 10° NNW 20:02:54 51° ENE 20:05:09 33° ESE
SL-14 R/B 3.5 20:04:14 33° SSW 20:05:44 61° W 20:09:29 10° N
Cosmos 1862 Rocket 3.4 20:05:38 43° S 20:07:01 82° E 20:11:27 10° N
Landsat 5 3.4 20:03:12 10° NNE 20:07:14 66° ESE 20:07:59 53° SSE
Cosmos 2315 Rocket 4.0 20:03:35 10° N 20:10:00 89° W 20:13:13 32° S
Okean 3 3.3 20:09:59 57° SSE 20:10:39 71° E 20:14:47 10° NNE
Cosmos 1833 4.1 20:07:05 16° SSW 20:11:37 87° WNW 20:17:16 10° NNE
ERS-1 Rocket 3.7 20:10:00 24° SSW 20:12:40 46° W 20:17:30 10° NNW
Atlas Centaur 2 3.5 20:06:08 10° W 20:13:43 42° SSW 20:16:21 33° SSE
Cosmos 1932 4.4 20:09:16 10° SSW 20:15:37 84° ESE 20:21:57 10° NNE
Cosmos 1346 Rocket 2.5 20:11:56 10° N 20:15:48 89° NE 20:16:09 73° S
Tiangong 0.3 20:15:22 10° W 20:16:23 15° WSW 20:16:23 15° WSW
Cosmos 841 Rocket 4.1 20:15:16 10° NNW 20:20:20 49° WSW 20:22:25 32° SSW
Cosmos 1455 3.7 20:19:10 10° NNE 20:21:19 22° NE 20:21:19 22° NE
Terra 2.8 20:21:54 26° SSW 20:23:53 39° W 20:28:19 10° NNW
SJ 16-02 1.4 20:23:40 43° SW 20:24:59 73° WNW 20:29:18 10° NNE
Meteor 2-20 4.4 20:19:33 10° N 20:25:45 86° E 20:28:01 42° S
Spot 2 Rocket 4.2 20:23:44 30° SSW 20:25:51 47° W 20:30:44 10° NNW
Meteor 1-16 Rocket 4.4 20:20:14 10° N 20:26:09 67° E 20:27:53 45° SE
RESURS DK-1 2.8 20:22:44 10° NW 20:26:40 48° WSW 20:27:05 46° SW
Cosmos 1707 Rocket 4.4 20:25:27 27° SW 20:27:32 46° W 20:31:49 10° N
Aureole 3 3.4 20:27:07 58° SW 20:27:43 71° W 20:32:16 10° N
CZ-2C R/B 4.4 20:27:43 10° NNE 20:31:21 38° E 20:31:21 38° E
Cosmos 2333 4.3 20:26:08 10° NNW 20:31:54 69° ENE 20:33:27 48° SE
Cosmos 2322 Rocket 2.6 20:35:54 10° NNW 20:41:25 53° WSW 20:42:59 41° SSW
ATLAS 2AS CENTAUR R/B 2.5 20:35:19 10° NNW 20:42:07 87° ENE 20:44:10 48° SE
Cosmos 839 Rocket 4.2 20:36:23 10° NNW 20:43:00 65° ENE 20:44:53 44° ESE
Cosmos 2297 Rocket 3.9 20:45:31 19° E 20:45:31 19° E 20:48:16 10° NE
ARIANE 5 R/B 3.4 20:45:49 37° ENE 20:45:49 37° ENE 20:49:43 10° N
USA 281 3.7 20:47:30 35° ESE 20:49:48 48° ENE 20:56:05 10° NNW
Ariane Rocket 4.4 20:48:54 23° SW 20:50:43 29° W 20:55:08 10° NW
Cosmos 1745 Rocket 4.2 20:50:22 47° ESE 20:51:27 52° E 20:57:35 10° NNE
Cosmos 1733 Rocket 4.2 20:48:11 10° NNW 20:52:12 35° W 20:53:00 32° WSW
Okean 1-7 3.3 20:53:31 58° WSW 20:53:51 60° W 20:58:08 10° N
CZ-3 Stage 3 4.2 20:11:57 10° W 20:55:56 63° SSW 21:01:00 36° SE
Meteor 2-20 Rocket 4.5 20:54:08 10° NNW 21:00:19 72° W 21:01:49 51° SSW
Cosmos 1386 Rocket 4.4 21:02:27 58° SSE 21:03:46 78° E 21:10:00 10° N
Nadezhda 1 Rocket 4.1 20:58:41 10° N 21:04:53 60° E 21:05:54 53° ESE
Cosmos 2219 Rocket 2.0 21:00:29 10° NNW 21:06:11 87° WSW 21:06:53 70° SSE
Cosmos 1908 Rocket 3.6 21:02:30 10° N 21:06:27 72° NNW 21:06:27 72° NNW
GP-B 3.2 21:02:31 10° N 21:06:32 72° NNE 21:06:32 72° NNE
BREEZE-M DEB (TANK) 3.8 21:05:22 10° NW 21:06:54 39° NNW 21:06:54 39° NNW
COSMOS 2428 3.3 21:02:30 10° N 21:07:56 45° ENE 21:08:56 41° E
Okean 2 4.4 21:08:11 38° W 21:08:14 38° W 21:12:00 10° N
Cosmos 1782 Rocket 4.2 21:05:31 10° N 21:09:04 46° NE 21:09:04 46° NE
Cosmos 1315 Rocket 4.4 21:17:28 27° W 21:17:46 27° WNW 21:21:13 10° NNW
Cosmos 1953 3.5 21:18:04 10° NNW 21:20:51 35° WNW 21:20:51 35° WNW
Cosmos 1570 Rocket 3.9 21:19:17 10° NNW 21:24:39 82° ENE 21:24:46 81° E
Cosmos 1300 Rocket 4.1 21:22:44 10° N 21:26:10 52° NNE 21:26:10 52° NNE
Cosmos 158 Rocket 4.1 21:25:16 10° NNW 21:30:29 63° ENE 21:30:29 63° ENE
Cosmos 2360 Rocket 3.6 21:26:18 10° NW 21:30:52 26° WSW 21:31:30 25° WSW
BlueWalker 3 3.9 21:31:50 24° WNW 21:32:56 28° NNW 21:36:12 10° NNE
SL-24 R/B - RUBIN 2 4.3 21:28:13 10° NW 21:34:40 68° WSW 21:35:04 66° SW
CENTAUR R/B 3.8 21:37:35 23° E 21:37:35 23° E 21:41:02 10° NE
COSMOS 2455 2.8 21:35:30 68° SW 21:36:19 85° WNW 21:42:24 10° NNE
ALOS 2 3.5 21:37:03 41° NE 21:37:03 41° NE 21:40:34 10° N
NOSS 0 Rocket 4.1 21:38:35 10° NNW 21:44:47 62° ENE 21:45:42 55° ESE
Cosmos 2333 Rocket 3.9 21:42:32 10° NW 21:46:42 21° W 21:47:09 21° WSW
Cosmos 1709 Rocket 4.0 21:49:59 66° SW 21:50:53 78° W 21:57:16 10° N
Cosmos 773 Rocket 4.4 21:47:02 10° N 21:51:58 51° ENE 21:51:58 51° ENE
Cosmos 836 Rocket 4.5 21:47:50 10° NNW 21:52:43 78° NNW 21:52:43 78° NNW
H-2A R/B 3.5 21:58:41 43° NW 21:58:41 43° NW 22:01:49 10° NNW
CZ-4C R/B 2.2 21:58:28 55° NW 21:58:28 55° NW 22:03:29 10° NNE
Cosmos 2208 Rocket 4.2 21:54:05 10° NNW 21:58:40 60° WNW 21:58:40 60° WNW
Cosmos 2242 Rocket 4.5 22:02:21 45° NW 22:02:21 45° NW 22:06:12 10° N
Cosmos 1777 Rocket 4.1 22:03:24 73° NE 22:03:24 73° NE 22:08:12 10° NNE
Cosmos 1503 Rocket 4.0 22:03:12 78° NNW 22:03:12 78° NNW 22:08:17 10° NNE
Cosmos 2237 Rocket 2.6 22:01:13 10° NNW 22:06:45 53° ENE 22:07:12 51° E
Cosmos 2227 Rocket 2.6 22:08:29 51° E 22:08:29 51° E 22:13:20 10° NNE
SL-12 R/B(2) 4.3 22:07:54 51° SE 22:08:53 54° ESE 22:17:37 10° NE
Cosmos 2322 4.4 22:04:40 10° NW 22:09:35 43° W 22:09:35 43° W
Meteor 1-24 Rocket 3.7 22:10:17 73° W 22:10:28 74° W 22:16:10 10° N
Cosmos 371 Rocket 4.2 22:15:49 40° WNW 22:15:49 40° WNW 22:20:19 10° N
GEOS 3 Rocket 4.2 22:11:54 10° NE 22:15:46 45° ENE 22:15:46 45° ENE
Cosmos 1980 3.7 22:14:20 10° NNW 22:20:01 73° ENE 22:20:05 73° ENE
Cosmos 2154 Rocket 4.4 22:22:29 48° ESE 22:22:51 49° E 22:28:49 10° NNE
NOSS 3-2 (A) 4.3 22:25:02 31° E 22:25:02 31° E 22:28:46 10° NE
Cosmos 2297 Rocket 2.6 22:27:17 49° W 22:27:52 52° WNW 22:33:23 10° NNE
Cosmos 1825 4.4 22:31:23 22° NNE 22:31:23 22° NNE 22:32:43 10° N
Cosmos 2219 3.9 22:32:08 43° E 22:32:08 43° E 22:36:48 10° NE
SL-4 R/B 3.4 22:28:44 10° NW 22:31:56 39° N 22:31:56 39° N
USA 281 4.2 22:34:22 30° WSW 22:34:25 30° WSW 22:40:04 10° NW
Okean 1 Rocket 4.0 22:35:41 10° N 22:38:57 44° NNE 22:38:57 44° NNE
COSMOS 2428 4.3 22:47:25 10° NW 22:50:54 23° W 22:50:54 23° W
Cosmos 1610 Rocket 4.5 22:57:04 68° SE 22:57:42 74° E 23:04:04 10° N
Cosmos 2181 Rocket 4.3 22:53:21 10° NNW 22:59:17 51° W 22:59:29 51° W
Cosmos 1975 Rocket 4.4 23:00:38 33° ENE 23:00:38 33° ENE 23:03:49 10° NNE
H-2A R/B 3.2 22:56:02 10° N 22:59:07 37° NW 22:59:07 37° NW
Cosmos 2263 Rocket 2.5 23:00:27 54° E 23:00:27 54° E 23:05:34 10° NNE
Cosmos 292 Rocket 4.4 23:01:50 50° ENE 23:01:50 50° ENE 23:05:42 10° NNE
Cosmos 2074 Rocket 4.1 23:05:16 56° WSW 23:05:48 58° W 23:11:56 10° N
Cosmos 1455 Rocket 3.7 23:12:08 10° N 23:15:56 52° NE 23:15:56 52° NE
Cosmos 1025 Rocket 4.0 23:25:42 42° NW 23:25:42 42° NW 23:29:00 10° N
Helios 1A Rocket 4.0 23:26:49 38° NE 23:26:49 38° NE 23:29:44 10° N
CENTAUR R/B 3.0 23:24:42 39° W 23:26:09 47° NW 23:32:38 10° NNE
Cosmos 1461 4.0 23:31:16 39° NE 23:31:16 39° NE 23:33:51 10° NE
In-Cosmos 22 Rocket 4.1 23:32:43 75° S 23:33:14 86° E 23:39:05 10° N
USA 238 DEB 4.4 23:35:37 31° SE 23:36:21 32° ESE 23:41:58 10° NE
USA 238 4.4 23:35:39 31° SE 23:36:24 32° ESE 23:42:00 10° NE
COBE Rocket 4.3 23:36:21 10° NNE 23:41:26 54° E 23:41:51 53° ESE
IDEFIX/ARIANE 42P 3.3 23:39:15 10° NNE 23:44:11 41° E 23:44:56 39° ESE
SL-16 R/B 2.0 23:38:30 10° NNW 23:44:13 82° WSW 23:44:44 73° S
Nadezhda 3 Rocket 4.3 23:40:42 10° NNW 23:46:37 47° W 23:47:09 46° WSW
Cosmos 2218 Rocket 4.1 23:46:33 52° SSE 23:48:00 70° E 23:54:10 10° NNE
Cosmos 2082 3.8 23:49:30 55° W 23:50:13 60° WNW 23:55:47 10° NNE
Cosmos 2237 Rocket 4.0 23:46:24 10° NW 23:48:59 18° W 23:48:59 18° W
Cosmos 1538 Rocket 4.3 23:46:23 10° NNW 23:50:57 51° W 23:50:57 51° W
Cosmos 2227 Rocket 3.9 23:50:16 18° W 23:52:11 22° NW 23:56:29 10° N
BREEZE-M DEB (TANK) 3.6 23:48:27 10° NW 23:51:39 31° NNW 23:51:39 31° NNW
CZ-2C R/B 4.4 23:48:01 10° NE 23:52:32 28° E 23:53:58 24° ESE
CZ-2C R/B 4.0 23:50:35 18° ESE 23:53:42 34° ENE 23:58:27 10° N
Cosmos 858 Rocket 4.3 23:53:49 75° SSE 23:54:12 82° ESE 23:59:27 10° NNE
Cosmos 1869 4.0 23:52:03 10° N 23:55:00 48° NNE 23:55:00 48° NNE
